Regional Weather Roundup
Issued by NWS

Home | Current Version | Previous Version | Graphics & Text | Print | Product List | Glossary On
Versions: 1 2 3 4 5 6 7 8 9 10 11 12 13 14 15 16 17 18 19 20 21 22 23 24 25 26 27 28 29 30 31 32 33 34 35 36 37 38 39 40 41 42 43 44 45 46 47 48 49 50
000
ASUS45 KBOI 040610
RWRID
WEATHER ROUNDUP FOR IDAHO
NATIONAL WEATHER SERVICE BOISE ID
1100 PM MST TUE MAR 03 2015

NOTE: "FAIR" INDICATES FEW OR NO CLOUDS BELOW 12000 FEET
WITH NO SIGNIFICANT WEATHER AND/OR OBSTRUCTIONS TO VISIBILITY

IDZ012-014-040700-
SOUTHWEST IDAHO


CITY           SKY/WX    TMP DP  RH WIND       PRES   REMARKS
BOISE          CLEAR     32  13  45 W7        30.09R WCI  26
CALDWELL       CLEAR     30  10  43 NW10      30.14R WCI  21
MOUNTAIN HOME  CLEAR     27  14  57 W12       30.08R WCI  17
$$

IDZ016-017-040700-
SOUTHCENTRAL IDAHO


CITY           SKY/WX    TMP DP  RH WIND       PRES   REMARKS
BURLEY         CLEAR     29  11  47 SW14G23   29.99R WCI  18
JEROME         CLEAR     28  11  48 SW17      30.00R WCI  16
TWIN FALLS     CLEAR     30  11  45 SW17      30.01R WCI  18
$$

IDZ019>023-040700-
SOUTHEAST IDAHO


CITY           SKY/WX    TMP DP  RH WIND       PRES   REMARKS
IDAHO FALLS    PTCLDY    21  13  71 CALM      29.99R
POCATELLO      CLOUDY    27  17  66 SW13      29.99R WCI  16
REXBURG        MOCLDY    17   6  62 E8        30.00R WCI   7
$$

IDZ006-010-011-018-031-032-040700-
CENTRAL IDAHO MOUNTAINS


CITY           SKY/WX    TMP DP  RH WIND       PRES   REMARKS
MCCALL         CLEAR     19   8  62 N6        30.04R WCI  11
HAILEY         CLEAR     25  18  74 NW7       29.95R WCI  17
STANLEY          N/A     16   0  49 NW5       29.97R WCI   9
SALMON         CLEAR     21   5  49 NE3       30.08R
CHALLIS        CLEAR     24   4  42 N15G21    29.99R WCI  11
$$

IDZ002-004-006-007-026-040700-
NORTHERN IDAHO


CITY           SKY/WX    TMP DP  RH WIND       PRES   REMARKS
LEWISTON       CLEAR     30  18  60 S6        30.22R WCI  24
LOWELL           N/A     26  21  81 CALM      30.26R
COEUR D`ALENE  CLEAR     27  12  54 S6        30.14S WCI  20
MULLAN PASS    CLEAR     12   5  73 NW7       29.98R WCI   1
$$



USA.gov is the U.S. government's official web portal to all federal, state and local government web resources and services.